Regional Weather Roundup
Issued by NWS

Home | Current Version | Previous Version | Graphics & Text | Print | Product List | Glossary Off
Versions: 1 2 3 4 5 6 7 8 9 10 11 12 13 14 15 16 17 18 19 20 21 22 23 24 25 26 27 28 29 30 31 32 33 34 35 36 37 38 39 40 41 42 43 44 45 46 47 48 49 50

000
ASUS43 KMPX 061010
RWRMN
WEATHER ROUNDUP FOR MINNESOTA
NATIONAL WEATHER SERVICE TWIN CITIES/CHANHASSEN MN
400 AM CST FRI MAR 06 2015


NOTE: "FAIR" INDICATES FEW OR NO CLOUDS BELOW 12,000 FEET WITH NO
SIGNIFICANT WEATHER AND/OR OBSTRUCTIONS TO VISIBILITY. N/A MEANS
CURRENT SKY AND/OR WEATHER CONDITIONS ARE NOT AVAILABLE.

MNZ060>063-068>070-061100-
   Twin Cities Metro

CITY           SKY/WX    TMP DP  RH WIND       PRES   REMARKS
TWIN CITIES    PTCLDY    11   0  61 SE7       30.14F WCI   0
ST PAUL        CLEAR     10   2  69 SE8       30.17F WCI  -2
CRYSTAL        CLEAR     12   1  61 S8        30.11F WCI   0
BLAINE         CLEAR     12   3  67 S9        30.11F WCI   0
LAKEVILLE      CLEAR      9   0  66 S12G21    30.14F WCI  -6
EDEN PRAIRIE   CLEAR     13   2  61 S13       30.12F WCI  -2
SOUTH ST PAUL  CLEAR     11   2  67 CALM      30.16F
LAKE ELMO      FAIR      12   3  67 S10       30.15F WCI  -1
$$
MNZ001>005-007-008-013>017-022>024-027-028-061100-
   Northwest Minnesota

CITY           SKY/WX    TMP DP  RH WIND       PRES   REMARKS
BEMIDJI        CLEAR     13   5  69 SW6       29.90S WCI   4
HALLOCK        CLEAR     12   7  79 NW8       29.94S WCI   1
ROSEAU         CLEAR     16   9  73 W9        29.90S WCI   4
WARROAD        CLEAR     14   9  79 W7        29.89S WCI   4
THIEF RVR FALL CLEAR     12   7  79 W8        29.93R WCI   1
CROOKSTON      CLEAR     10   7  85 W7        29.96S WCI   0
FOSSTON        CLEAR     10   5  79 SW8       29.93S WCI  -1
DETROIT LAKES  CLEAR     18  10  73 SW7       29.95S WCI   8
MOORHEAD       CLEAR     14  10  85 S7        29.99S WCI   4
PARK RAPIDS    PTCLDY    11   3  70 SW5       29.93F WCI   3
MAHNOMEN       FAIR      13   7  79 SW13      29.94S WCI  -2
$$
MNZ006-009>011-018-025>026-061100-
   North Central Minnesota

CITY           SKY/WX    TMP DP  RH WIND       PRES   REMARKS
BAUDETTE       CLEAR     15   7  70 W9        29.86S WCI   3
FLAG ISLAND    CLEAR     14   9  79 W10       29.85S WCI   1
INTL FALLS     CLEAR      9   1  70 SW6       29.87F WCI  -1
WASKISH        PTCLDY    16   7  67 CALM      29.90R
BIG FORK       CLOUDY    14   5  67 SW9       29.90S WCI   2
LONGVILLE      CLOUDY    12   5  73 S7        29.94F WCI   2
GRAND RAPIDS   CLOUDY     9   3  78 S9        29.92F WCI  -5
CRANE LAKE     CLOUDY     9   1  72 S3        29.92F
ORR            CLOUDY    10   0  61 CALM      29.88F
COOK           CLOUDY     9   1  72 S6        29.92F WCI  -1
WALKER         FAIR      13   4  66 SW13      29.91F WCI  -1
$$
MNZ012-019>021-037-061100-
   Northeast Minnesota

CITY           SKY/WX    TMP DP  RH WIND       PRES   REMARKS
DULUTH         CLOUDY     9   0  67 SW18      29.97F WCI -10
ELY            CLOUDY    10   1  67 SW13      29.90F WCI  -5
HIBBING        CLOUDY     8   0  69 S6        29.94F WCI  -2
EVELETH        PTCLDY    10   3  72 SW9       29.95F WCI  -2
DULUTH HARBOR  CLOUDY    10   1  67 SW17      30.06F WCI  -7
TWO HARBORS    CLOUDY     9   1  72 SW12      29.99F WCI  -6
SILVER BAY     MOCLDY    10   1  67 SW10G17   29.98F WCI  -3
GRAND MARAIS     N/A     15   7  70 W12G23    30.03F WCI   2
G MARAIS ARPRT CLOUDY     7  -2  66 S14G23    29.92F WCI -10
$$
MNZ029>031-032-039>041-046>048-054>057-064-061100-
   West Central Minnesota

CITY           SKY/WX    TMP DP  RH WIND       PRES   REMARKS
FERGUS FALLS   MOCLDY    16   7  67 S8        30.03S WCI   5
WHEATON        CLEAR     12   7  79 S10       30.01F WCI  -1
MORRIS         CLOUDY    12   7  79 S8        30.01F WCI   1
ALEXANDRIA     CLOUDY    15   7  70 SW10      30.00F WCI   2
ELBOW LAKE     CLOUDY    15  10  79 S10       29.99F WCI   2
WADENA         CLOUDY    14   7  73 SW9       29.95F WCI   2
GLENWOOD       CLOUDY    14   9  79 S9        30.02F WCI   2
APPLETON       CLOUDY    10   5  79 S5        30.03F WCI   2
BENSON         CLOUDY    16   9  73 S5        30.03F WCI   9
ORTONVILLE     PTCLDY    18   9  68 SW5       30.02F WCI  11
MADISON        FAIR      23  12  63 W9        30.04F WCI  13
WILLMAR        MOCLDY    12   7  79 SE3       30.06F
$$
MNZ033>034-036-042>043-049>051-058-059-061100-
   Central Minnesota

CITY           SKY/WX    TMP DP  RH WIND       PRES   REMARKS
ST CLOUD       CLOUDY    12   4  70 S12       30.06F WCI  -2
SAUK CENTRE    CLOUDY    13   7  76 S8        30.02F WCI   1
PAYNESVILLE    MOCLDY    10   4  79 SE7       30.05F WCI  -1
AITKIN         CLOUDY    14   5  67 S8        29.98F WCI   3
PINE RIVER     CLOUDY    14   7  73 S6        29.99F WCI   5
BRAINERD       CLOUDY    12   4  70 SW13      30.00F WCI  -3
STAPLES        CLOUDY    12   7  79 S8        29.98F WCI   1
LONG PRAIRIE   CLOUDY    12   7  79 S9        30.01F WCI   0
LITTLE FALLS   CLOUDY    14   7  73 S8        30.04F WCI   3
LITCHFIELD     PTCLDY    12   7  79 CALM      30.06F
BUFFALO        CLEAR     13   4  66 S9        30.11F WCI   0
MAPLE LAKE     CLEAR     13   6  73 S9        30.08F WCI   1
$$
MNZ037-044-045-052-053-061100-
   East Central Minnesota

CITY           SKY/WX    TMP DP  RH WIND       PRES   REMARKS
PRINCETON      CLOUDY    12   3  67 S9        30.07F WCI   0
MORA           PTCLDY     7   1  78 S5        30.07F WCI  -2
CAMBRIDGE      MOCLDY    12   1  62 S9        30.07F WCI   0
RUSH CITY      MOCLDY     6   1  78 S7        30.09F WCI  -5
MOOSE LAKE     CLOUDY     9   1  72 S9        30.02F WCI  -5
HINCKLEY       CLOUDY     9   3  78 S8        30.07F WCI  -4
CLOQUET        CLOUDY     9   1  72 SW10      29.99F WCI  -6
MCGREGOR       CLOUDY    12   5  73 S8        30.01S WCI   1
$$
MNZ071>073-080-081-089-090-097-098-061100-
   Southwest Minnesota

CITY           SKY/WX    TMP DP  RH WIND       PRES   REMARKS
MONTEVIDEO     MOCLDY    16  10  79 W6        30.05F WCI   7
GRANITE FALLS  PTCLDY    17  10  76 CALM      30.06F
CANBY          PTCLDY    22  12  63 SW13      30.05S WCI  10
MARSHALL       PTCLDY    23   9  54 SW20G28   30.04F WCI   8
REDWOOD FALLS  FAIR      17   9  70 S6        30.07F WCI   9
OLIVIA         PTCLDY    14   9  79 S9        30.05F WCI   2
PIPESTONE      FAIR      18  10  73 SW7       30.06F WCI   8
WINDOM         CLEAR     16   9  73 S13       30.08F WCI   2
WORTHINGTON    CLEAR     16   9  73 SW14      30.10F WCI   1
JACKSON        CLEAR     16   9  73 S15       30.10F WCI   1
TRACY          PTCLDY    21  11  65 SW22      30.04F WCI   5
SLAYTON        FAIR      18   9  66 SW16      30.06F WCI   3
$$
MNZ065>067-074>077-082>085-091>093-061100-
   South Central Minnesota

CITY           SKY/WX    TMP DP  RH WIND       PRES   REMARKS
MANKATO        CLEAR     14   1  57 S13       30.12F WCI   0
NEW ULM        CLEAR     12   5  73 S9        30.10F WCI   0
ST JAMES       CLEAR     16   7  67 S13       30.11F WCI   2
FAIRMONT       CLEAR     16   5  62 S15       30.11F WCI   1
GLENCOE        CLEAR     14   8  75 S12       30.09F WCI   0
FARIBAULT      CLEAR      7   0  72 S9        30.15F WCI  -7
OWATONNA       CLEAR      9   0  66 S16G23    30.13F WCI  -9
WASECA         CLEAR     12   3  67 S10       30.16F WCI  -1
ALBERT LEA     CLEAR     10   1  67 S13G20    30.14F WCI  -5
$$
MNZ078>079-086>088-094>096-061100-
   Southeast Minnesota

CITY           SKY/WX    TMP DP  RH WIND       PRES   REMARKS
ROCHESTER      MOCLDY     7  -2  66 S20G28    30.16F WCI -13
RED WING       CLOUDY    10   0  61 SE3       30.18F
STANTON        CLEAR     12   2  63 S10G17    30.14F WCI  -1
DODGE CENTER   PTCLDY     9   1  72 S18       30.13F WCI -10
WINONA         CLOUDY    10   1  67 SE5       30.26F WCI   2
AUSTIN         PTCLDY     7   0  72 S13G18    30.17F WCI  -9
PRESTON        CLOUDY     4  -2  73 S17       30.20F WCI -15
$$
ABBREVIATIONS USED IN REMARKS
   TC - TEMPERATURES IN CELSIUS
  WCI - WIND CHILL INDEX
   HX - HEAT INDEX
  VSB - VISIBILITY
$$



USA.gov is the U.S. government's official web portal to all federal, state and local government web resources and services.